Find OneWeb SL0178

NORAD ID: 48075 Int'l Des: 2021-025 Owner: ONEWEBN Country: UK Constellation: oneweb operational
LEOCIRCULARPOLARONEWEB_TYPE

当前视图

正在加载3D地球...

About OneWeb SL0178

OneWeb SL0178 (NORAD 48075) is a oneweb constellation satellite launched Mar 25, 2021 by ONEWEBN of UK. It operates in LEO, CIRCULAR, POLAR, ONEWEB_TYPE orbit with a mass of 148.00 kg.

关于 OneWeb SL0178

正在加载描述...

即将过境

Passes for default location (London). Set your location on the main map for personalized predictions.

高度历史

Loading altitude history...

两行轨道根数

1 48075U 21025AK 26195.31200786 .00000262 00000-0 68316-3 0 9991
2 48075 87.8976 314.8356 0002172 104.0444 256.0926 13.13471197257281
Epoch: Jul 14, 2026 • Age: 12 hours

当前状态

高度 1238.1 km
远地点 / 近地点 N/A
速度 7.23 km/s
星下点 -72.69°S, 87.33°W
发射日期 Mar 25, 2021
运行时间 5.3 years
类型 internet

技术详情

分类 Payload
质量 148.00 kg
干质量 140.00 kg
总质量 148.00 kg
长度 1.30 m
直径 1.00 m
跨度 5.00 m
形状 Trapezoid+2 pan
制造商 ONEWUS
平台类型 ARROW
阶段状态 In Orbit
所有者/国家 ONEWEBN/UK

Most Searched